{"data":{"norad_id":58176,"intl_designator":"2023-167B","name":"STARLINK-30824","alt_names":[],"object_type":"PAYLOAD","status":"ACTIVE","operator":null,"country":"US","launch_date":"2023-10-30","launch_site_code":"AFETR","launch_vehicle":null,"mission":null,"orbit_class":"UNKNOWN","rcs_meters":null,"size_class":null,"mass_kg":null,"dimensions":null,"purposes":["comms"],"wikipedia_slug":null,"has_3d_model":false,"image_url":null,"decayed_at":null,"tle_current":{"epoch":"2026-09-19T22:54:59.122944Z","epoch_age_seconds":187560,"freshness":"STALE","line1":"1 58176U 23167B   26262.95485096  .00001359  00000+0  58889-4 0  9999","line2":"2 58176  43.0018 126.4571 0001237 270.5406  89.5304 15.27578519160699","mean_motion":15.27578519,"eccentricity":0.0001237,"inclination_deg":43.0018,"raan_deg":126.4571,"arg_perigee_deg":270.5406,"mean_anomaly_deg":89.5304,"bstar":5.8889e-5,"rev_number":16069,"period_min":94.266840106044,"perigee_km":482.20480142138,"apogee_km":483.90225995867,"semimajor_km":6861.19053069,"source":"CELESTRAK","updated_at":"2026-09-21T09:00:33.825891Z"}}}